Location: Unspecified
(40.7945°N, 111.1337°W)
Time: 16:24:12
(UTC-06:00)

Okean 3 - Pass Details

Date: 23 March 2019
Orbit: 576 x 602 km, 82.5° (Epoch: 20 April)

Event Time Altitude Azimuth Distance (km) Brightness Sun altitude
Rises 05:37:34 0° 169° (S) 2,825 6.9 -20.4°
Reaches altitude 10° 05:39:51 10° 162° (SSE) 1,930 6.1 -20.0°
Maximum altitude 05:43:51 41° 92° (E) 873 4.8 -19.3°
Drops below altitude 10° 05:47:55 10° 22° (NNE) 1,950 6.7 -18.5°
Sets 05:50:13 0° 16° (NNE) 2,857 7.5 -18.1°
